STARLINK-3079 (49433 NORAD) Tracking and Keplerian Element Data

This shows tracking and keplerian element data for the satellite.

Feedback or suggestion? Click here.




ElementValue
Catalog49433
NameSTARLINK-3079
Epoch Orbit480
Epoch Day339.91667824
Epoch Year2021
RAAN22.2397
Inclination53.2187
Eccentricity0.0002211
Argument of Perigee33.9795
Mean Anonmoly33.1957
Mean Motion15.73186149
Decay Rate0.0004636
L11 49433U 21104AB 21339.91667824 .00046360 00000+0 33309-3 0 9991
L22 49433 53.2187 22.2397 0002211 33.9795 33.1957 15.73186149 4803

Live tracking and technical data element details for STARLINK-3079 (NORAD 49433). STARLINK-3079 can be tracked NOW for your location showing map with azimuth and elevation plus other details from your city location.

Track the satellite on the map from your city or location and see movement details for azimuth, elevation, latitude, longitude, range, height, and movement on the map or in text.







IsCatalogInMostPopularTable: catalog: 49433, numindb: 2
Update: records affected: 1



GetName: 49433 STARLINK-3079

Hit Count: updated at: Wed, 08 Dec 2021 15:44:53 GMT